Погода Каменная Степь

Погода Каменная Степь : погода сейчас, прогноз погоды и архив. Всё, что Вы хотите узнать о погоде Каменная Степь!

Поиск расширенной информации на нашем сайте:

Другие новости

Новости СМИ2

Главная страница сайта

Новости сайта

02.10.2013

Напоминаем, что на нашем новом сайте вы можете получить высокодетализированные прогнозы погоды по пунктам России, СНГ и мира (включающие важные для авиации метеовеличины, такие как направление и скорость ветра, видимость, явления погоды, количество и форма облачности, нижняя и верхняя граница облачности), а также ознакомиться с разнообразными материалами по авиационной метеорологии и подборкой полезных ссылок на эту тему.

Сайт Метеоцентр.Азия посвящён разработке технологий оптимизации авиаметеорологического обслуживания, включая проектирование и перспективное создание нескольких автоматизированных авиаметеорологических систем:
- система выпуска высокодетальных прогностических карт явлений погоды для нижнего воздушного пространства по России и ближнему зарубежью;
- система верификации прогнозов TAF (выпускаемых синоптиками официальных АМСГ РФ и ближнего зарубежья) и AUTOTAF (выпускаемых сайтом Метеоцентр.Азия) - выявление ошибок, онлайн-сопоставление с фактической погодой METAR, автоматическое внесение коррективов в прогнозы при резком отклонении фактической погоды от прогноза, подсчёт оправдываемости прогнозов по элементам и в целом;
- система обработки, анализа и отображения авиаметеорологической информации для применения провайдерами метеорологической информации.

Рекомендуем: Jpg столы пластиковые.

Погода Каменная Степь - сегодня

Время (UTC), дата Ветер
(°,м/с) 
Видим.   Явления Облачность Т
(°С)
Тd
(°С)
f(%) Тe
(°С)
Pmin
(гПа)
dP
(гПа)
Po
(мм)
O2
(г/м3)
Тmin Tmax R s Состояние
почвы
06 23.05.17 270 (З) 12000 м    1/0 верхняя 
[Ci fib]
+11.9 +3.6 57 +12  1015.5  1.1  744  287           
09 23.05.17 270 (З) 13000 м    8/6 600 м верхняя 
[Cu hum|Ci fib]
+15.8 +2.5 41 +17  1015.2  744  283           
12 23.05.17 250 (З) 13000 м    8/8 600 м 
[Cu hum]
+17.7 +3.6 39 +18  1014.7  -0.3  744  281           
15 23.05.17 250 (З) 13000 м    10/9 600 м верхняя 
[Sc|Ci fib]
+17.5 +5.3 45 +18  1014.4  -0.3  744  281    +18.4       
18 23.05.17 180 (Ю) 10 км    8/3 600 м верхняя 
[Sc|Ci fib]
+14.4 +4.5 51 +15  1015.5  0.7  744  284           
21 23.05.17 200 (Ю) 10 км    8/3 600 м верхняя 
[Sc|Ci fib]
+13.9 +5 55 +14  1016.2  0.7  745  285           
00 24.05.17 200 (Ю) 10 км    10/10 600 м 
[Sc]
+14.4 +5.6 55 +14  1016.2  745  284           
03 24.05.17 200 (Ю) н/о    н/о 
+13.9 +6.7 62 +14  1016.5  0.4  745  285  +12.9         
06 24.05.17 230 (ЮЗ) 12000 м    3/0 средняя 
[Ac trans]
+17.5 +6.4 48 +18  1016.4  0.3  745  281           
09 24.05.17 230 (ЮЗ) 13000 м    3/1 600 м верхняя 
[Cu hum|Ci fib]
+21.4 +8 42 +21  1015.9  -0.2  745  277           
12 24.05.17 240 (ЮЗ) 4{11}  13000 м    8/8 600 м 
[Cu hum]
+22.8 +7 36 +23  1015.4  -0.5  745  276           
15 24.05.17 230 (ЮЗ) 13000 м  осадки на расстоянии  9/8 600 м средняя 
[Sc|Ac lent]
+22.4 +7.4 38 +22  1015  -0.4  744  276    +24       
18 24.05.17 230 (ЮЗ) 10 км    8/6 600 м средняя, верхняя 
[Sc|Ac trans|Ci fib]
+18.4 +7.8 50 +19  1016.3  745  280           
21 24.05.17 200 (Ю) 10 км    6/0 верхняя 
[Ci fib]
+17 +6.4 50 +17  1016.7  0.3  745  282           
00 25.05.17 200 (Ю) 10 км    8/6 600 м верхняя 
[Sc|Ci fib]
+14.7 +7.1 60 +15  1016.9  745  284           
03 25.05.17 230 (ЮЗ) 12000 м    10/9 600 м верхняя 
[Sc|Ci fib]
+14.6 +7.6 63 +15  1017.1  0.2  746  284  +13.4         
06 25.05.17 140 (ЮВ) 12000 м    9/9 600 м 
[Sc]
+16.3 +10 66 +19  1018.2  1.1  746  282           
09 25.05.17 120 (ЮВ) 12000 м    9/9 600 м 
[Cu hum]
+20.2 +11.3 57 +23  1017.6  -0.1  746  278           
12 25.05.17 180 (Ю) 12000 м    6/6 600 м средняя, верхняя 
[Cu hum|Ac trans|Ci fib]
+23 +9.8 43 +24  1016.5  -1  746  275           
15 25.05.17 270 (З) 13000 м    6/4 600 м верхняя 
[Cu hum|Ci fib]
+22.2 +8.1 40 +22  1015.8  -0.7  745  276    +23.2       
18 25.05.17 110 (В) 10 км    9/4 600 м средняя, верхняя 
[Cu Sc|Ac As|Cs]
+16.2 +9.9 66 +18  1016.4  0.3  745  282           
21 25.05.17 160 (Ю) 10 км    9/0 средняя, верхняя 
[Ac As|Cs]
+15 +10 72 +16  1016.5  -0.2  745  283           
00 26.05.17 180 (Ю) 10 км    10/6 600 м средняя, верхняя 
[Sc|Ac As|Cs]
+14.3 +10.3 77 +16  1015.9  -0.6  745  283           
03 26.05.17 160 (Ю) 11000 м    9/5 600 м средняя, верхняя 
[Sc|Ac As|Cs]
+13.8 +10.2 79 +17  1015.8  -0.2  745  284  +13.5         
06 26.05.17 230 (ЮЗ) 12000 м    8/5 600 м верхняя 
[Sc|Ci fib]
+18.5 +11.5 64 +22  1015.1  -0.3  744  279           
Время (UTC), дата Ветер
(°,м/с) 
Видим.   Явления Облачность Т
(°С)
Тd
(°С)
f(%) Тe
(°С)
Pmin
(гПа)
dP
(гПа)
Po
(мм)
O2
(г/м3)
Тmin Tmax R s Состояние
почвы

Для получения пояснительной информации подведите курсор к названию столбца.

ПОГОДА Каменная Степь - архив

Всё, что Вы хотите узнать о погоде Каменная Степь - удобно и подробно!

Выберите нужную дату (начиная с 1 января 2015* года) и нажмите кнопку "Найти".
Будут отображены архивные сводки погоды по пункту Каменная Степь, начиная с указанной даты.


Отображать данные в формате CSV (для использования в таблицах Excel)


Внимание! Наш архив погоды предназначен исключительно для личного некоммерческого использования в познавательных целях. Если Вам необходимы официальные справки о состоянии погоды (для производственных, юридических, коммерческих и т.п. целей), обращайтесь в органы Росгидромета.

*Примечание: данная дата относится к архиву по метеостанциям СССР (Россия, СНГ, Балтия).
Архив по метеостанциям Зарубежной Европы и Азии (кроме Китая) хранится 10 дней, по другим регионам земного шара (Китай, Африка, Америка, Австралия, Океания) - 1 день.

Каменная Степь - район местоположения метеостанции


Название, широта, долгота, высота метеостанции:
Каменная Степь 51.1°ш. 40.7°д. 194 м над ур. моря [Российская Федерация]

Дополнительная информация

В oтличие oт бoльшинства пoгoдных сайтoв мы публикуем пoдрoбную метеoинфoрмацию в детальнoм прoфессиoнальнoм фoрмате.

Характеристики температуры и влажнoсти вoздуха измеряются на высoте 2 м в тени вдали oт зданий и деревьев.
Скoрoсть ветра измеряется на высoте 10 м (на урoвне рoста челoвека скoрoсть ветра ниже в 1.5-2 раза). Если метеoстанция нахoдится в гoрoде или в лесу, тo скoрoсть ветра занижена на 2-4 м/с пo сравнению с oткрытым местoм. Скoрoсть ветра над акватoриями крупных рек и oзёр, а также на вершинах хoлмoв на 2-5 м/с выше, чем в oбычных услoвиях.
Атмoсфернoе давление в разных тoчках местнoсти мoжет значительнo oтличаться oт давления на метеoстанции, в зависимoсти oт услoвий рельефа (при пoдъёме на 10 м давление пoнижается примернo на 1 мм рт.ст.).